Location: Ash Swamp
(41.5170°N, 74.6157°W)
Time: 02:45:20
(UTC+00:00)

Cosmos 1603 - Pass Details

Date: 14 July 2020
Orbit: 830 x 861 km, 71.0° (Epoch: 14 August)

Event Time Altitude Azimuth Distance (km) Brightness Sun altitude
Exits shadow 04:32:00 38° 249° (WSW) 1,273 4.5 -26.4°
Maximum altitude 04:33:44 51° 298° (WNW) 1,061 4.3 -26.5°
Drops below altitude 10° 04:39:19 10° 15° (NNE) 2,494 7.0 -26.6°
Sets 04:41:52 0° 20° (NNE) 3,438 7.9 -26.7°
